+43 3833 8250 0 office@segelflug.at

Wetter

ACHTUNG: Die hier angeboten Wetter-Informationen sind nicht geeicht und dürfen für Flugvorbereitungen nicht verwendet werden
ACG Flugwetter

METAR/TAF LOXZ

LOXZ 200850Z 04002KT 30KM FEW060AC SCT300CI 24/13 Q1019

TAF LOXZ 181415Z 1812/1824 CNL

METAR/TAF LOXA

LOXA 100820Z VRB02KT 50KM FEW120AC SCT300CI 17/13 Q1021 NOSIG RMK SCT

TAF TAF LOXA 090515Z 0906/0918 VRB03KT 0500 FG SCT060 BECMG 0906/0908 9999 NSW FEW060 BECMG 0909/0911 04007KT TEMPO 0910/0915 SCT060 BKN100

METAR/TAF LOWG 

LOWG 200920Z 13004KT 050V180 9999 FEW060 26/14 Q1017 NOSIG

TAF LOWG 200515Z 2006/2106 VRB02KT CAVOK TX31/2014Z TN17/2103Z TEMPO 2010/2017 18010KT TEMPO 2013/2016 9999 FEW070 FEW070CB SCT300

(Information der letzten Stunde)

(Information der letzten Stunde)

Dichtehöhe (in LOGT)
Temperatur / Windchill der letzten 10 Tage

Ext. Links zu Wetterdiensten

ALDIS

Öster.- Unwetterzentrale